Location: Glasgow
(55.8642°N, 4.2518°W)
Time: 08:50:46
(UTC+01:00)

ISS - Pass Details

Date: 12 October 2017
Orbit: 400 x 408 km, 51.6° (Epoch: 24 October)

Event Time Altitude Azimuth Distance (km) Brightness Sun altitude
Rises 19:54:57 0° 272° (W) 2,328 2.0 -13.6°
Reaches altitude 10° 19:57:43 10° 247° (WSW) 1,466 0.0 -14.0°
Maximum altitude 19:59:35 14° 212° (SSW) 1,225 -1.1 -14.2°
Drops below altitude 10° 20:01:28 10° 177° (S) 1,465 -1.1 -14.5°
Enters shadow 20:02:26 - 165° (SSE) 1,727 -0.9 -14.6°
